N7BDR Weather Reports


Display with metric or nautical units.
time (UTC)temp
F
wind
direction
speed
MPH
gust
MPH
rain 1hr
in
rain 24hr
in
rain mn
in
humidity
%
barometer
mb
20260906025722 78 272 0.0 0.0 0.00 0.00 0.00 21 1004.1
20260906025203 79 271 0.0 0.0 0.00 0.00 0.00 21 1004.1
20260906024651 80 271 0.0 0.0 0.00 0.00 0.00 21 1003.9
20260906024201 80 271 0.0 0.0 0.00 0.00 0.00 20 1003.8
20260906023654 81 273 0.0 0.0 0.00 0.00 0.00 19 1003.7
20260906023141 81 273 1.0 5.0 0.00 0.00 0.00 18 1003.6
20260906022651 82 266 1.0 7.0 0.00 0.00 0.00 18 1003.6
20260906022151 82 265 1.0 7.0 0.00 0.00 0.00 18 1003.5
20260906021641 83 268 2.0 7.0 0.00 0.00 0.00 17 1003.5
20260906021144 83 234 2.0 7.0 0.00 0.00 0.00 17 1003.4
20260906020630 83 244 2.0 10.0 0.00 0.00 0.00 17 1003.4
20260906020119 84 268 2.0 10.0 0.00 0.00 0.00 16 1003.4
20260906015611 84 268 3.0 10.0 0.00 0.00 0.00 16 1003.3
20260906014457 85 261 3.0 9.0 0.00 0.00 0.00 15 1003.4
20260906014002 85 261 3.0 9.0 0.00 0.00 0.00 15 1003.4
20260906013448 85 269 3.0 9.0 0.00 0.00 0.00 15 1003.5
20260906012307 86 245 3.0 10.0 0.00 0.00 0.00 15 1003.5
20260906011816 86 262 4.0 14.0 0.00 0.00 0.00 15 1003.5
20260906011309 87 262 4.0 14.0 0.00 0.00 0.00 15 1003.5
20260906010803 87 265 5.0 14.0 0.00 0.00 0.00 15 1003.6
20260906010250 87 248 4.0 14.0 0.00 0.00 0.00 15 1003.5
20260906005741 87 168 4.0 17.0 0.00 0.00 0.00 16 1003.5
20260906005249 87 277 6.0 17.0 0.00 0.00 0.00 15 1003.5
20260906004740 87 267 6.0 17.0 0.00 0.00 0.00 15 1003.5
20260906004222 88 264 5.0 17.0 0.00 0.00 0.00 15 1003.5
20260906003705 88 193 3.0 13.0 0.00 0.00 0.00 16 1003.5
20260906003155 88 250 3.0 16.0 0.00 0.00 0.00 15 1003.5
20260906002635 88 214 6.0 16.0 0.00 0.00 0.00 15 1003.5
20260906002116 88 235 6.0 19.0 0.00 0.00 0.00 15 1003.5
20260906001559 88 169 6.0 19.0 0.00 0.00 0.00 15 1003.6
20260906001057 88 245 7.0 19.0 0.00 0.00 0.00 14 1003.6
20260906000552 88 261 7.0 19.0 0.00 0.00 0.00 14 1003.5
20260905235423 89 275 8.0 18.0 0.00 0.00 0.00 13 1003.5
20260905234930 89 266 5.0 14.0 0.00 0.00 0.00 14 1003.6
20260905234438 89 279 5.0 21.0 0.00 0.00 0.00 14 1003.6
20260905233932 89 285 7.0 21.0 0.00 0.00 0.00 14 1003.7
20260905232806 90 266 7.0 17.0 0.00 0.00 0.00 13 1003.7
20260905232306 89 220 7.0 17.0 0.00 0.00 0.00 14 1003.8
20260905231759 89 270 8.0 21.0 0.00 0.00 0.00 13 1003.8
20260905231305 89 245 9.0 21.0 0.00 0.00 0.00 13 1003.8
20260905230812 89 264 10.0 24.0 0.00 0.00 0.00 13 1004.0
20260905225647 89 253 8.0 24.0 0.00 0.00 0.00 13 1004.0
20260905225134 89 265 8.0 24.0 0.00 0.00 0.00 13 1004.1
20260905224625 89 253 8.0 20.0 0.00 0.00 0.00 13 1004.1
20260905224119 89 159 8.0 20.0 0.00 0.00 0.00 12 1004.1
20260905223602 89 237 8.0 20.0 0.00 0.00 0.00 13 1004.2
20260905223046 89 226 7.0 20.0 0.00 0.00 0.00 13 1004.5
20260905221938 90 160 6.0 14.0 0.00 0.00 0.00 13 1004.3
20260905221446 89 258 5.0 14.0 0.00 0.00 0.00 12 1004.3
20260905220945 89 270 5.0 13.0 0.00 0.00 0.00 12 1004.3
20260905220448 89 246 5.0 13.0 0.00 0.00 0.00 15 1004.3
20260905215325 89 163 5.0 17.0 0.00 0.00 0.00 14 1004.5
20260905214830 89 213 5.0 17.0 0.00 0.00 0.00 15 1004.6
20260905214320 89 156 6.0 17.0 0.00 0.00 0.00 15 1004.8
20260905213827 89 233 6.0 15.0 0.00 0.00 0.00 16 1004.7
20260905213336 89 256 4.0 15.0 0.00 0.00 0.00 17 1004.8
20260905212821 89 150 4.0 15.0 0.00 0.00 0.00 17 1004.8
20260905212324 89 253 4.0 15.0 0.00 0.00 0.00 16 1005.0
20260905211827 89 177 4.0 15.0 0.00 0.00 0.00 16 1005.0
20260905211321 89 231 4.0 15.0 0.00 0.00 0.00 16 1005.2
20260905210810 88 174 6.0 15.0 0.00 0.00 0.00 17 1005.2
20260905210312 88 220 7.0 15.0 0.00 0.00 0.00 17 1005.2
20260905203926 88 178 6.0 17.0 0.00 0.00 0.00 17 1005.4
20260905203421 88 152 6.0 16.0 0.00 0.00 0.00 17 1005.3
20260905202916 87 242 6.0 16.0 0.00 0.00 0.00 17 1005.3
20260905202414 87 158 5.0 12.0 0.00 0.00 0.00 17 1005.5
20260905201914 87 204 4.0 13.0 0.00 0.00 0.00 18 1005.6
20260905200805 87 180 4.0 18.0 0.00 0.00 0.00 18 1005.7
20260905200245 87 193 5.0 18.0 0.00 0.00 0.00 19 1005.7
20260905195727 87 237 5.0 18.0 0.00 0.00 0.00 18 1005.8
20260905195235 87 189 5.0 18.0 0.00 0.00 0.00 17 1005.9
20260905194722 87 159 5.0 20.0 0.00 0.00 0.00 18 1005.9
20260905193556 86 144 5.0 20.0 0.00 0.00 0.00 18 1006.0
20260905193046 86 198 5.0 20.0 0.00 0.00 0.00 18 1006.1
20260905192528 86 113 4.0 17.0 0.00 0.00 0.00 17 1006.2
20260905192017 87 181 4.0 14.0 0.00 0.00 0.00 18 1006.2
20260905191519 86 173 4.0 18.0 0.00 0.00 0.00 18 1006.3
20260905190349 85 189 7.0 18.0 0.00 0.00 0.00 19 1006.4
20260905185835 85 178 6.0 17.0 0.00 0.00 0.00 18 1006.4
20260905185325 86 153 5.0 19.0 0.00 0.00 0.00 19 1006.7
20260905184832 85 145 6.0 19.0 0.00 0.00 0.00 18 1006.5
20260905184314 85 196 6.0 19.0 0.00 0.00 0.00 20 1006.7
20260905183801 85 241 5.0 19.0 0.00 0.00 0.00 18 1006.7
20260905183254 85 153 5.0 15.0 0.00 0.00 0.00 19 1006.8
20260905182129 84 190 5.0 15.0 0.00 0.00 0.00 20 1007.0
20260905181616 84 166 6.0 14.0 0.00 0.00 0.00 19 1007.0
20260905181110 84 194 5.0 14.0 0.00 0.00 0.00 19 1007.1
20260905175947 84 192 4.0 12.0 0.00 0.00 0.00 19 1007.3
20260905175428 84 184 4.0 13.0 0.00 0.00 0.00 20 1007.3
20260905174927 84 228 4.0 13.0 0.00 0.00 0.00 19 1007.4
20260905173741 83 217 3.0 14.0 0.00 0.00 0.00 20 1007.4
20260905173224 83 244 3.0 14.0 0.00 0.00 0.00 21 1007.5
20260905172731 83 185 3.0 14.0 0.00 0.00 0.00 20 1007.5
20260905172231 82 186 3.0 14.0 0.00 0.00 0.00 22 1007.5
20260905171053 81 166 4.0 14.0 0.00 0.00 0.00 21 1007.6
20260905170545 81 238 5.0 14.0 0.00 0.00 0.00 23 1007.7
20260905165444 81 231 7.0 16.0 0.00 0.00 0.00 22 1007.7
20260905164317 80 225 5.0 16.0 0.00 0.00 0.00 23 1007.6
20260905163800 80 232 7.0 16.0 0.00 0.00 0.00 24 1007.7
20260905163250 80 163 7.0 16.0 0.00 0.00 0.00 22 1007.6
20260905162759 80 190 5.0 16.0 0.00 0.00 0.00 22 1007.6
20260905162306 80 188 5.0 16.0 0.00 0.00 0.00 25 1007.6
20260905161804 79 160 6.0 16.0 0.00 0.00 0.00 23 1007.6
20260905161245 80 144 4.0 16.0 0.00 0.00 0.00 24 1007.6
20260905160126 79 200 5.0 13.0 0.00 0.00 0.00 25 1007.8
20260905155003 78 163 6.0 17.0 0.00 0.00 0.00 26 1007.8
20260905154445 78 237 6.0 17.0 0.00 0.00 0.00 26 1007.8
20260905153320 78 273 4.0 14.0 0.00 0.00 0.00 28 1007.7
20260905152819 77 236 4.0 14.0 0.00 0.00 0.00 28 1007.8
20260905152309 77 199 4.0 14.0 0.00 0.00 0.00 28 1007.8
20260905151803 77 182 5.0 14.0 0.00 0.00 0.00 28 1007.8
20260905151309 77 158 4.0 13.0 0.00 0.00 0.00 28 1007.8
20260905150815 76 213 3.0 10.0 0.00 0.00 0.00 28 1007.8
20260905150324 76 273 3.0 10.0 0.00 0.00 0.00 27 1007.8
20260905144553 75 174 4.0 12.0 0.00 0.00 0.00 29 1007.6
20260905144053 74 171 4.0 13.0 0.00 0.00 0.00 29 1007.6
20260905142906 74 243 3.0 13.0 0.00 0.00 0.00 29 1007.5
20260905142408 74 241 4.0 13.0 0.00 0.00 0.00 29 1007.4
20260905141910 74 194 3.0 11.0 0.00 0.00 0.00 29 1007.4
20260905141415 73 246 2.0 9.0 0.00 0.00 0.00 29 1007.3
20260905140911 72 166 2.0 7.0 0.00 0.00 0.00 30 1007.3
20260905140407 72 176 2.0 13.0 0.00 0.00 0.00 30 1007.3
20260905135911 72 274 3.0 13.0 0.00 0.00 0.00 30 1007.3
20260905135417 71 242 4.0 13.0 0.00 0.00 0.00 29 1007.1
20260905134926 71 169 4.0 13.0 0.00 0.00 0.00 29 1007.1
20260905134406 70 259 4.0 10.0 0.00 0.00 0.00 29 1007.1
20260905133249 69 180 3.0 8.0 0.00 0.00 0.00 29 1007.1
20260905132110 67 223 2.0 6.0 0.00 0.00 0.00 31 1006.9
20260905131603 66 170 1.0 4.0 0.00 0.00 0.00 31 1006.8
20260905131055 66 215 1.0 4.0 0.00 0.00 0.00 32 1006.7
20260905130538 66 261 1.0 4.0 0.00 0.00 0.00 33 1006.7
20260905130033 66 240 1.0 4.0 0.00 0.00 0.00 33 1006.5
20260905124859 66 235 0.0 4.0 0.00 0.00 0.00 34 1006.3
20260905124349 66 253 1.0 4.0 0.00 0.00 0.00 34 1006.3
20260905123841 66 199 1.0 4.0 0.00 0.00 0.00 34 1006.3
20260905122735 66 216 0.0 2.0 0.00 0.00 0.00 35 1006.1
20260905122230 67 229 0.0 2.0 0.00 0.00 0.00 35 1006.1
20260905121740 67 228 0.0 2.0 0.00 0.00 0.00 36 1006.0
20260905121224 67 229 0.0 2.0 0.00 0.00 0.00 36 1006.0
20260905120711 67 234 0.0 2.0 0.00 0.00 0.00 36 1006.0
20260905120206 67 173 0.0 2.0 0.00 0.00 0.00 36 1006.0
20260905115700 68 246 0.0 2.0 0.00 0.00 0.00 36 1005.9
20260905115207 68 235 1.0 3.0 0.00 0.00 0.00 36 1006.0
20260905114715 68 237 1.0 3.0 0.00 0.00 0.00 36 1005.9
20260905114208 68 227 1.0 5.0 0.00 0.00 0.00 36 1005.9
20260905113716 69 245 2.0 5.0 0.00 0.00 0.00 35 1005.9
20260905113206 69 197 2.0 6.0 0.00 0.00 0.00 35 1005.9
20260905112026 69 242 2.0 6.0 0.00 0.00 0.00 36 1005.9
20260905111516 69 207 2.0 6.0 0.00 0.00 0.00 36 1005.9
20260905111022 69 185 1.0 4.0 0.00 0.00 0.00 36 1005.9
20260905105856 69 218 1.0 5.0 0.00 0.00 0.00 37 1005.8
20260905105345 70 251 2.0 6.0 0.00 0.00 0.00 36 1005.8
20260905104218 70 227 2.0 6.0 0.00 0.00 0.00 36 1005.7
20260905101815 69 230 0.0 2.0 0.00 0.00 0.00 38 1005.6
20260905101257 69 239 0.0 2.0 0.00 0.00 0.00 38 1005.5
20260905100752 69 166 0.0 2.0 0.00 0.00 0.00 38 1005.5
20260905095635 69 255 0.0 2.0 0.00 0.00 0.00 38 1005.3
20260905095135 69 246 0.0 0.0 0.00 0.00 0.00 39 1005.2
20260905094619 69 261 0.0 0.0 0.00 0.00 0.00 38 1005.1
20260905093456 69 256 0.0 0.0 0.00 0.00 0.00 36 1004.9
20260905092340 69 329 0.0 0.0 0.00 0.00 0.00 34 1004.9
20260905091151 69 320 0.0 0.0 0.00 0.00 0.00 37 1004.7
20260905090650 70 256 0.0 0.0 0.00 0.00 0.00 37 1004.7
20260905090148 70 256 0.0 0.0 0.00 0.00 0.00 37 1004.7
20260905085650 70 256 0.0 0.0 0.00 0.00 0.00 36 1004.7
20260905085150 71 246 0.0 1.0 0.00 0.00 0.00 36 1004.5
20260905084640 71 324 0.0 0.0 0.00 0.00 0.00 36 1004.5
20260905084132 71 333 0.0 0.0 0.00 0.00 0.00 36 1004.5
20260905083619 71 269 0.0 0.0 0.00 0.00 0.00 36 1004.5
20260905083114 72 268 0.0 0.0 0.00 0.00 0.00 36 1004.4
20260905082624 72 332 0.0 0.0 0.00 0.00 0.00 36 1004.2
20260905081434 72 252 0.0 1.0 0.00 0.00 0.00 36 1004.2
20260905080928 72 277 0.0 0.0 0.00 0.00 0.00 36 1004.2
20260905075758 73 254 0.0 2.0 0.00 0.00 0.00 35 1004.2
20260905075306 73 253 0.0 0.0 0.00 0.00 0.00 35 1004.2
20260905074756 73 250 0.0 1.0 0.00 0.00 0.00 35 1004.2
20260905074238 73 253 0.0 0.0 0.00 0.00 0.00 34 1004.2
20260905073725 74 265 0.0 0.0 0.00 0.00 0.00 34 1004.2
20260905073229 74 256 0.0 0.0 0.00 0.00 0.00 33 1004.0
20260905072712 75 233 1.0 6.0 0.00 0.00 0.00 32 1003.9
20260905072201 75 233 1.0 6.0 0.00 0.00 0.00 31 1003.7
20260905071655 75 253 2.0 6.0 0.00 0.00 0.00 31 1003.8
20260905071144 75 206 2.0 6.0 0.00 0.00 0.00 30 1003.7
20260905070638 76 172 1.0 6.0 0.00 0.00 0.00 30 1003.7
20260905070142 76 219 1.0 6.0 0.00 0.00 0.00 30 1003.6
20260905065634 76 258 2.0 6.0 0.00 0.00 0.00 30 1003.5
20260905065128 76 251 1.0 6.0 0.00 0.00 0.00 30 1003.4
20260905064608 76 243 2.0 6.0 0.00 0.00 0.00 30 1003.3
20260905064108 76 234 2.0 6.0 0.00 0.00 0.00 29 1003.3
20260905062320 76 163 1.0 7.0 0.00 0.00 0.00 30 1003.1
20260905061821 76 262 2.0 7.0 0.00 0.00 0.00 29 1003.0
20260905060712 77 245 3.0 9.0 0.00 0.00 0.00 29 1002.9
20260905060159 77 265 3.0 9.0 0.00 0.00 0.00 28 1002.8
20260905055648 77 214 3.0 11.0 0.00 0.00 0.00 28 1002.7
20260905055157 77 171 2.0 11.0 0.00 0.00 0.00 29 1002.6
20260905054657 77 220 2.0 11.0 0.00 0.00 0.00 28 1002.6
20260905054205 77 206 2.0 11.0 0.00 0.00 0.00 28 1002.5
20260905053048 77 185 1.0 8.0 0.00 0.00 0.00 28 1002.4
20260905052547 77 187 1.0 8.0 0.00 0.00 0.00 28 1002.4
20260905052038 77 234 1.0 8.0 0.00 0.00 0.00 28 1002.4
20260905051545 77 237 1.0 8.0 0.00 0.00 0.00 27 1002.4
20260905051043 76 244 0.0 4.0 0.00 0.00 0.00 27 1002.2
20260905045912 76 253 1.0 4.0 0.00 0.00 0.00 27 1002.3
20260905045412 76 216 0.0 4.0 0.00 0.00 0.00 27 1002.2
20260905044909 76 232 0.0 3.0 0.00 0.00 0.00 26 1002.1
20260905044404 76 252 0.0 3.0 0.00 0.00 0.00 26 1002.1
20260905043913 76 252 0.0 3.0 0.00 0.00 0.00 26 1002.1
20260905043407 76 257 0.0 3.0 0.00 0.00 0.00 26 1002.1
20260905042857 76 265 0.0 0.0 0.00 0.00 0.00 26 1002.0
20260905041719 76 218 0.0 3.0 0.00 0.00 0.00 26 1002.0
20260905041213 77 192 0.0 3.0 0.00 0.00 0.00 26 1001.9
20260905040712 77 248 0.0 0.0 0.00 0.00 0.00 26 1001.9
20260905040205 77 244 0.0 1.0 0.00 0.00 0.00 25 1001.8
20260905035652 78 237 0.0 0.0 0.00 0.00 0.00 25 1001.8
20260905033903 80 234 0.0 5.0 0.00 0.00 0.00 23 1001.6
20260905033354 80 263 1.0 5.0 0.00 0.00 0.00 23 1001.5
20260905032844 81 267 1.0 7.0 0.00 0.00 0.00 22 1001.5
20260905032335 81 267 0.0 7.0 0.00 0.00 0.00 23 1001.5
20260905031822 81 248 1.0 7.0 0.00 0.00 0.00 23 1001.5
20260905031329 81 153 2.0 7.0 0.00 0.00 0.00 22 1001.4
20260905030814 81 261 1.0 5.0 0.00 0.00 0.00 23 1001.3
20260905030300 81 277 0.0 3.0 0.00 0.00 0.00 23 1001.3